Location: Asheville, NC
(35.6000°N, 82.5500°W)
Time: 03:51:39
(UTC-04:00)

Vanguard 1 Rocket - Visible Passes

Search period start: 24 October 2017 00:00
Search period end: 03 November 2017 00:00
Orbit: 655 x 4222 km, 34.3° (Epoch: 23 October)

Date Brightness Start Highest point End Pass type
(mag) Time Alt. Az. Time Alt. Az. Time Alt. Az.
24 Oct 10.4 04:32:05 16° S 04:40:17 25° SSE 04:47:58 10° ESE visible
24 Oct 8.8 06:55:59 10° SW 07:07:26 53° SSE 07:13:35 10° E visible
25 Oct 10.9 03:25:55 18° SSE 03:27:37 18° SSE 03:35:21 10° ESE visible
25 Oct 9.5 05:43:18 12° SW 05:55:48 43° SSE 06:03:05 10° E visible
26 Oct 10.1 04:36:59 24° SSW 04:43:39 34° SSE 04:52:09 10° E visible
26 Oct 8.6 06:58:35 10° WSW 07:10:46 64° SSE 07:17:07 10° E visible
27 Oct 10.6 03:30:33 25° SSE 03:30:57 25° SSE 03:40:20 10° E visible
27 Oct 9.2 05:47:54 17° SW 05:59:06 53° SSE 06:06:44 10° E visible
28 Oct 11.1 02:24:00 14° ESE 02:24:00 14° ESE 02:26:48 10° ESE visible
28 Oct 9.8 04:41:21 33° SSW 04:46:55 43° SSE 04:55:59 10° E visible
28 Oct 8.5 07:01:20 10° WSW 07:14:05 73° S 07:20:35 10° E visible
29 Oct 10.4 03:34:43 33° SSE 03:34:43 33° SSE 03:44:37 10° E visible
29 Oct 9.0 05:52:03 22° SW 06:02:23 63° SSE 06:10:15 10° E visible
30 Oct 10.9 02:28:00 19° ESE 02:28:00 19° ESE 02:32:06 10° E visible
30 Oct 9.6 04:45:19 41° SSW 04:50:09 52° SSE 04:59:37 10° E visible
30 Oct 8.5 07:04:13 10° WSW 07:17:24 80° S 07:24:03 10° E visible
31 Oct 10.1 03:38:31 41° SE 03:38:31 41° SE 03:48:30 10° E visible
31 Oct 9.0 05:55:51 26° WSW 06:05:37 72° SSE 06:13:42 10° E visible
01 Nov 10.8 02:31:38 23° ESE 02:31:38 23° ESE 02:36:32 10° E visible
01 Nov 9.4 04:48:58 49° SSW 04:53:19 61° SSE 05:03:08 10° E visible
01 Nov 8.5 07:07:10 10° W 07:20:44 83° S 07:27:30 10° E visible
02 Nov 9.9 03:42:02 49° SE 03:42:02 49° SE 03:52:10 10° E visible
02 Nov 8.9 05:59:20 28° WSW 06:08:52 78° S 06:17:09 10° E visible
